Location: Daerah Kuala Lumpur
(3.1167°N, 101.6833°E)
Time: 14:35:01
(UTC+00:00)

ARIANE 6 FM1 Upper Stage - Pass Details

Date: 21 February 2026
Orbit: 523 x 607 km, 62.0° (Epoch: 14 March)

Event Time Altitude Azimuth Distance (km) Brightness Sun altitude
Rises 13:02:18 0° 338° (NNW) 2,667 6.3 -24.0°
Reaches altitude 10° 13:04:28 10° 340° (NNW) 1,790 5.3 -24.6°
Enters shadow 13:05:35 18° 342° (NNW) 1,349 4.6 -24.8°
